STARLINK-4634 (53967 NORAD) Tracking and Keplerian Element Data

This shows tracking and keplerian element data for the satellite.

Feedback or suggestion? Click here.




ElementValue
Catalog53967
NameSTARLINK-4634
Epoch Orbit130
Epoch Day324.91667824
Epoch Year2022
RAAN232.5931
Inclination53.2147
Eccentricity0.0001668
Argument of Perigee45.6104
Mean Anonmoly248.8482
Mean Motion15.08864372
Decay Rate-0.00041034
L11 53967U 22125D 22324.91667824 -.00041034 00000+0 -25731-2 0 9991
L22 53967 53.2147 232.5931 0001668 45.6104 248.8482 15.08864372 1304



Live tracking and technical data element details for STARLINK-4634 (NORAD 53967). STARLINK-4634 can be tracked NOW for your location showing map with azimuth and elevation plus other details from your city location.







IsCatalogInMostPopularTable: catalog: 53967, numindb: 2
Update: records affected: 1



GetName: 53967 STARLINK-4634

Hit Count: updated at: Fri, 09 Dec 2022 20:39:24 GMT